Weather History for CWGB - October, 2013

Change the Weather History Date:

Monday, October 28, 2013

  Actual Average Record
Temperature  
Mean Temperature 52 °F -  
Max Temperature 55 °F - - ()
Min Temperature 48 °F - - ()
Degree Days  
Heating Degree Days 13    
Growing Degree Days 2 (Base 50)    
Moisture  
Dew Point 39 °F    
Average Humidity 60    
Maximum Humidity 78    
Minimum Humidity 43    
Precipitation  
Precipitation 0.00 in - - ()
Sea Level Pressure  
Sea Level Pressure 29.99 in    
Wind  
Wind Speed 13 mph ()    
Max Wind Speed 21 mph    
Max Gust Speed 22 mph    
T = Trace of Precipitation, MM = Missing Value Source: Averaged Metar Reports

Daily Weather History Graph

Daily Weather History Graph

Search for Another Location

Airport or City:

Trip Planner

Search our weather history database for the weather conditions in past years. The results will help you decide how hot, cold, wet, or windy it might be!

Date:

Astronomy

Oct. 28, 2013 Rise Set
Actual Time 7:58 AM PDT 6:01 PM PDT
Civil Twilight 7:25 AM PDT 6:34 PM PDT
Nautical Twilight 6:48 AM PDT 7:11 PM PDT
Astronomical Twilight 6:11 AM PDT 7:48 PM PDT
Moon 1:26 AM PDT (10/28) 3:14 PM PDT (10/28)
Length of Visible Light 11h 08m
Length of Day
10h 02m
Waning Crescent, 33% of the Moon is Illuminated
Oct 28
Waning Crescent
Nov 3
New
Nov 9
First Quarter
Nov 17
Full
Nov 25
Last Quarter

Hourly Weather History & Observations

Time (PDT) Temp. Dew Point Humidity Pressure Visibility Wind Dir Wind Speed Gust Speed Precip Events Conditions
12:00 AM 53.1 °F 45.7 °F 76% 30.04 in - West 13.8 mph - N/A   Unknown
1:00 AM 53.6 °F 43.7 °F 69% 30.03 in - West 13.8 mph - N/A   Unknown
2:00 AM 52.3 °F 45.5 °F 78% 30.04 in - WSW 16.1 mph 21.9 mph N/A   Unknown
3:00 AM 52.3 °F 43.9 °F 73% 30.04 in - West 13.8 mph - N/A   Unknown
4:00 AM 52.9 °F 39.6 °F 61% 30.04 in - West 18.4 mph - N/A   Unknown
5:00 AM 50 °F 38 °F 53% 30.04 in - WSW 13.8 mph - -  
5:00 AM 50.4 °F 37.9 °F 62% 30.04 in - WSW 13.8 mph - N/A   Unknown
6:00 AM 49.5 °F 35.4 °F 58% 30.04 in - WSW 15.0 mph - N/A   Unknown
7:00 AM 51.6 °F 41.4 °F 68% 30.04 in - West 18.4 mph - N/A   Unknown
8:00 AM 49.5 °F 34.9 °F 57% 30.04 in - WSW 13.8 mph - N/A   Unknown
9:00 AM 50.2 °F 37.9 °F 63% 30.05 in - West 15.0 mph - N/A   Unknown
10:00 AM 51.8 °F 36.3 °F 56% 30.04 in - West 12.7 mph - N/A   Unknown
11:00 AM 52.0 °F 41.4 °F 67% 30.03 in - West 15.0 mph - N/A   Unknown
12:00 PM 52.3 °F 38.8 °F 60% 30.02 in - West 18.4 mph - N/A   Unknown
1:00 PM 52.9 °F 38.5 °F 58% 29.99 in - WNW 20.7 mph - N/A   Unknown
2:00 PM 53.2 °F 38.5 °F 57% 29.98 in - West 17.3 mph - N/A   Unknown
3:00 PM 53.8 °F 40.5 °F 61% 29.96 in - West 16.1 mph - N/A   Unknown
4:00 PM 54.5 °F 39.6 °F 57% 29.94 in - West 13.8 mph - N/A   Unknown
5:00 PM 55 °F 39 °F 43% 29.93 in - West 13.8 mph - -  
5:00 PM 54.9 °F 38.8 °F 55% 29.93 in - West 13.8 mph - N/A   Unknown
6:00 PM 54.3 °F 40.1 °F 59% 29.92 in - West 13.8 mph - N/A   Unknown
7:00 PM 52.2 °F 36.7 °F 56% 29.93 in - SW 12.7 mph - N/A   Unknown
8:00 PM 51.8 °F 34.2 °F 51% 29.93 in - SW 12.7 mph - N/A   Unknown
9:00 PM 50.5 °F 35.2 °F 56% 29.94 in - SSW 5.8 mph - N/A   Unknown
10:00 PM 49.5 °F 35.6 °F 59% 29.95 in - SSW 4.6 mph - N/A   Unknown
11:00 PM 49 °F 34 °F 44% 29.95 in - SSW 5.8 mph - -  
11:00 PM 48.7 °F 33.8 °F 56% 29.95 in - SSW 5.8 mph - N/A   Unknown